Find Starlink 2381

NORAD ID: 47800 Int'l Des: 2021-018 Owner: SPXS Country: US Constellation: starlink operational
LEOCIRCULARSTARLINK_TYPE

Live Position

Loading 3D Globe...

About Starlink 2381

Description loading...

Upcoming Passes

Passes for default location (London). Set your location on the main map for personalized predictions.

Altitude History

Loading altitude history...

Two-Line Element Set

1 47800U 21018P 26122.50003471 .00067912 00000-0 23462-2 0 9998
2 47800 53.1497 348.7969 0001187 105.7715 250.3704 15.29329549 5789
Epoch: May 2, 2026 • Age: 4 hours

Current Status

Altitude 488.3 km
Velocity 7.62 km/s
Sub-Earth Point -32.65°S, 94.11°E
Launch Date Mar 11, 2021
Age 5.1 years
Type internet

Technical Details

Classification Payload
Mass 260.00 kg
Dry Mass 248.00 kg
Total Mass 260.00 kg
Length 0.20 m
Diameter 2.80 m
Span 9.00 m
Shape Box + pan
Manufacturer SPXS
Bus Type Starlink
Phase Status In Orbit
Owner/State SPXS/US

Most Searched